TimeCST,TemperatureF,Dew PointF,Humidity,Sea Level PressureIn,VisibilityMPH,Wind Direction,Wind SpeedMPH,Gust SpeedMPH,PrecipitationIn,Events,Conditions,WindDirDegrees,DateUTC
12:15 AM,12.2,3.2,67,30.16,10.0,West,10.4,-,N/A,,Clear,280,2014-02-24 06:15:00
12:35 AM,12.2,3.2,67,30.16,10.0,West,8.1,-,N/A,,Clear,270,2014-02-24 06:35:00
12:55 AM,12.2,3.2,67,30.16,10.0,West,9.2,-,N/A,,Clear,270,2014-02-24 06:55:00
1:15 AM,12.2,3.2,67,30.16,10.0,West,10.4,-,N/A,,Clear,280,2014-02-24 07:15:00
1:35 AM,12.2,3.2,67,30.16,10.0,West,11.5,-,N/A,,Clear,270,2014-02-24 07:35:00
1:55 AM,12.2,3.2,67,30.15,10.0,West,6.9,-,N/A,,Clear,280,2014-02-24 07:55:00
2:15 AM,12.2,3.2,67,30.15,10.0,West,11.5,17.3,N/A,,Clear,270,2014-02-24 08:15:00
2:30 AM,10.4,3.2,73,30.15,10.0,West,10.4,16.1,N/A,,Clear,270,2014-02-24 08:30:00
2:55 AM,10.4,3.2,73,30.15,10.0,West,10.4,16.1,N/A,,Clear,270,2014-02-24 08:55:00
3:15 AM,10.4,3.2,73,30.15,10.0,West,10.4,16.1,N/A,,Clear,270,2014-02-24 09:15:00
3:35 AM,10.4,3.2,73,30.15,10.0,West,10.4,17.3,N/A,,Clear,280,2014-02-24 09:35:00
3:55 AM,10.4,3.2,73,30.16,10.0,West,10.4,17.3,N/A,,Clear,280,2014-02-24 09:55:00
4:15 AM,10.4,3.2,73,30.16,10.0,WNW,12.7,17.3,N/A,,Clear,290,2014-02-24 10:15:00
4:35 AM,10.4,3.2,73,30.17,10.0,West,10.4,-,N/A,,Clear,280,2014-02-24 10:35:00
4:55 AM,10.4,3.2,73,30.17,10.0,West,10.4,18.4,N/A,,Clear,280,2014-02-24 10:55:00
5:15 AM,10.4,1.4,67,30.17,10.0,WNW,8.1,-,N/A,,Clear,290,2014-02-24 11:15:00
5:35 AM,10.4,1.4,67,30.18,10.0,WNW,6.9,-,N/A,,Clear,290,2014-02-24 11:35:00
5:55 AM,8.6,1.4,73,30.18,10.0,West,8.1,-,N/A,,Clear,280,2014-02-24 11:55:00
6:15 AM,8.6,1.4,73,30.18,10.0,West,6.9,-,N/A,,Clear,280,2014-02-24 12:15:00
6:35 AM,8.6,1.4,73,30.18,10.0,West,8.1,-,N/A,,Clear,280,2014-02-24 12:35:00
6:45 AM,8.6,-0.4,67,30.18,10.0,West,8.1,-,N/A,,Clear,280,2014-02-24 12:45:00
7:45 AM,10.4,1.4,67,30.20,10.0,WNW,11.5,18.4,N/A,,Clear,290,2014-02-24 13:45:00
8:45 AM,12.2,1.4,62,30.21,10.0,West,16.1,20.7,N/A,,Clear,280,2014-02-24 14:45:00
9:45 AM,15.8,3.2,58,30.21,10.0,West,15.0,-,N/A,,Clear,270,2014-02-24 15:45:00
10:45 AM,15.8,3.2,58,30.21,10.0,West,18.4,25.3,N/A,,Clear,270,2014-02-24 16:45:00
11:45 AM,17.6,5.0,58,30.21,10.0,WSW,18.4,23.0,N/A,,Clear,250,2014-02-24 17:45:00
12:45 PM,19.4,6.8,58,30.19,10.0,WNW,16.1,25.3,N/A,,Clear,290,2014-02-24 18:45:00
1:45 PM,19.4,5.0,54,30.19,10.0,West,16.1,25.3,N/A,,Clear,270,2014-02-24 19:45:00
2:45 PM,21.2,6.8,54,30.18,10.0,West,17.3,25.3,N/A,,Clear,270,2014-02-24 20:45:00
3:45 PM,21.2,6.8,54,30.18,10.0,West,12.7,19.6,N/A,,Clear,280,2014-02-24 21:45:00
4:45 PM,19.4,5.0,54,30.18,10.0,West,10.4,17.3,N/A,,Clear,280,2014-02-24 22:45:00
5:45 PM,19.4,3.2,49,30.19,10.0,West,8.1,-,N/A,,Clear,270,2014-02-24 23:45:00
6:45 PM,19.4,3.2,49,30.19,10.0,West,9.2,-,N/A,,Clear,280,2014-02-25 00:45:00
7:45 PM,17.6,5.0,58,30.19,10.0,WNW,6.9,-,N/A,,Clear,290,2014-02-25 01:45:00
8:15 PM,19.4,5.0,54,30.19,10.0,West,6.9,-,N/A,,Scattered Clouds,280,2014-02-25 02:15:00
8:35 PM,19.4,3.2,49,30.20,10.0,West,12.7,-,N/A,,Mostly Cloudy,280,2014-02-25 02:35:00
8:45 PM,17.6,3.2,53,30.20,10.0,WNW,6.9,-,N/A,,Clear,300,2014-02-25 02:45:00
8:55 PM,19.4,5.0,54,30.20,10.0,WNW,8.1,-,N/A,,Overcast,290,2014-02-25 02:55:00
9:15 PM,17.6,5.0,58,30.19,10.0,WNW,6.9,-,N/A,,Overcast,300,2014-02-25 03:15:00
9:35 PM,17.6,5.0,58,30.19,10.0,NW,8.1,-,N/A,,Overcast,310,2014-02-25 03:35:00
9:55 PM,17.6,5.0,58,30.19,10.0,NW,11.5,-,N/A,,Overcast,310,2014-02-25 03:55:00
10:15 PM,17.6,5.0,58,30.20,10.0,NW,6.9,-,N/A,,Overcast,310,2014-02-25 04:15:00
10:35 PM,17.6,5.0,58,30.20,10.0,NNW,8.1,-,N/A,,Overcast,340,2014-02-25 04:35:00
10:55 PM,17.6,5.0,58,30.21,10.0,NNW,5.8,-,N/A,,Overcast,330,2014-02-25 04:55:00
11:15 PM,15.8,5.0,62,30.21,10.0,NW,5.8,-,N/A,,Mostly Cloudy,310,2014-02-25 05:15:00
11:35 PM,15.8,5.0,62,30.20,10.0,NW,9.2,-,N/A,,Scattered Clouds,310,2014-02-25 05:35:00
11:55 PM,14.0,3.2,62,30.20,10.0,WNW,6.9,-,N/A,,Clear,300,2014-02-25 05:55:00